Location: Recife
(8.0585°S, 34.8848°W)
Time: 10:15:59
(UTC-03:00)

SR - Pass Details

Date: 22 April 2026
Orbit: 568 x 852 km, 66.7° (Epoch: 12 May)

Event Time Altitude Azimuth Distance (km) Brightness Sun altitude
Rises 21:21:20 0° 18° (NNE) 3,396 - -61.0°
Reaches altitude 10° 21:25:14 10° 44° (NE) 2,451 - -61.9°
Maximum altitude 21:27:49 13° 71° (ENE) 2,211 - -62.6°
Drops below altitude 10° 21:30:22 10° 99° (E) 2,414 - -63.2°
Sets 21:34:08 0° 125° (SE) 3,300 - -64.1°
